Flag Weather past 2 weeks in Darmstadt, Hesse, Germany

Now
41 °F

Overcast.


Feels Like: 35 °F
Forecast: 35 / 43 °F
Wind: 10 mph from Northeast

Location: Frankfurt-M-Flughafen Airport

Current Time: Nov 27, 2014 at 7:56:33 AM

Latest Report: Nov 27, 2014 at 7:20 AM


Visibility: N/A

Pressure: 29.86 "Hg

Humidity: 81%

Dew point: 36 °F

Location of DarmstadtLocation

Historic Weather in Darmstadt — Graph

°F

Darmstadt temperature yesterday

Maximum temperature yesterday: 43 °F (at 9:50 PM)
Minimum temperature yesterday: 36 °F (at 3:50 AM)
Average temperature yesterday: 40 °F

Past Weeks' High & Low Weather Summary

 TemperatureHumidityPressure
High54 °F (Nov 14, 12:20 PM)100% (Nov 12, 6:50 AM)30.33 "Hg (Nov 12, 6:50 AM)
Low32 °F (Nov 25, 2:50 AM)66% (Nov 21, 1:20 PM)29.50 "Hg (Nov 16, 5:50 AM)
Average45 °F89%29.97 "Hg
* Reported Nov 12 6:20 AM — Nov 27 6:50 AM, Darmstadt, Weather by CustomWeather, © 2014

Note: Actual official high and low records may vary slightly from our data, if they occured in-between our weather recording intervals... More about our weather records

Advertising

Darmstadt weather history for previous 24 hours

 ConditionsComfort  
Time TempWeatherWind HumidityBarometerVisibility
6:50 AM
Nov 27
39 °FOvercast.8 mph87%29.86 "HgN/A
6:20 AM41 °FOvercast.9 mph81%29.86 "HgN/A
5:50 AM41 °FOvercast.10 mph81%29.89 "HgN/A
5:20 AM41 °FOvercast.9 mph81%29.89 "HgN/A
4:50 AM41 °FOvercast.10 mph81%29.89 "HgN/A
4:20 AM41 °FOvercast.9 mph81%29.89 "HgN/A
3:50 AM41 °FOvercast.9 mph81%29.89 "HgN/A
3:20 AM41 °FOvercast.9 mph81%29.89 "HgN/A
2:50 AM41 °FOvercast.8 mph81%29.92 "HgN/A
2:20 AM41 °FOvercast.8 mph81%29.92 "HgN/A
1:50 AM41 °FOvercast.8 mph81%29.92 "HgN/A
1:20 AM41 °FOvercast.9 mph81%29.92 "HgN/A
12:50 AM41 °FOvercast.9 mph81%29.95 "HgN/A
12:20 AM41 °FPassing clouds.8 mph81%29.95 "HgN/A
11:50 PM
Nov 26
41 °FOvercast.8 mph81%29.95 "HgN/A
11:20 PM41 °FOvercast.8 mph81%29.95 "HgN/A
10:50 PM41 °FOvercast.9 mph81%29.95 "HgN/A
10:20 PM43 °FOvercast.10 mph76%29.95 "HgN/A
9:50 PM43 °FOvercast.9 mph76%29.98 "HgN/A
9:20 PM41 °FOvercast.10 mph81%29.98 "HgN/A
8:50 PM41 °FOvercast.10 mph81%29.98 "HgN/A
8:20 PM41 °FOvercast.8 mph81%29.98 "HgN/A
7:50 PM41 °FOvercast.8 mph81%29.98 "HgN/A
7:20 PM41 °FPassing clouds.10 mph81%29.98 "HgN/A
6:50 PM41 °FOvercast.8 mph81%29.98 "HgN/A
6:20 PM41 °FOvercast.9 mph81%29.98 "HgN/A
5:50 PM41 °FOvercast.9 mph81%30.01 "HgN/A
5:20 PM41 °FPassing clouds.10 mph81%29.98 "HgN/A
4:50 PM41 °FPassing clouds.9 mph81%29.98 "HgN/A
4:20 PM41 °FPartly sunny.10 mph81%30.01 "HgN/A
3:50 PM41 °FPartly sunny.8 mph81%30.01 "HgN/A
3:20 PM41 °FPartly sunny.8 mph81%30.01 "HgN/A
2:50 PM41 °FLight rain. Mostly cloudy.10 mph81%30.01 "HgN/A
2:20 PM41 °FPartly sunny.12 mph76%30.01 "HgN/A
1:50 PM41 °FPartly sunny.12 mph76%30.01 "HgN/A
1:20 PM41 °FPartly sunny.12 mph76%30.01 "HgN/A
12:50 PM41 °FPartly sunny.13 mph76%30.04 "HgN/A
12:20 PM41 °FPartly sunny.14 mph81%30.04 "HgN/A
11:50 AM41 °FPartly sunny.13 mph76%30.04 "HgN/A
11:20 AM41 °FPartly sunny.10 mph76%30.07 "HgN/A
10:20 AM39 °FScattered showers. Partly sunny.12 mph81%30.07 "HgN/A
9:50 AM39 °FScattered showers. Partly sunny.10 mph81%30.07 "HgN/A
9:20 AM39 °FBroken clouds.12 mph81%30.07 "HgN/A
8:50 AM37 °FBroken clouds.10 mph81%30.07 "HgN/A
8:20 AM37 °FPartly sunny.13 mph81%30.07 "HgN/A
7:50 AM39 °FPassing clouds.12 mph75%30.07 "HgN/A
7:20 AM37 °FPassing clouds.13 mph87%30.07 "HgN/A
Weather by CustomWeather, © 2014

See weather overviewHow to use our weather pages